DW8712 Villaverde de Pontones ES current weather conditions

sailwx.info

Wind from 221 at 4 knots gusting 9

Air temperature 10.0° C
Dewpoint 8.1° C

Last reported at 2017-Dec-15 13:09 UTC.
Time now 2017-Dec-15 13:57 UTC

Location: N 43°25' W 003°42'.
View on Google Maps.

See reports from other nearby stations

  
Tides and Currents Weather Stations Pressure Air Temp Water Temp Dewpoint Dewpoint Depression Visibility Wind Speed Wind Dir Waves Ship Positions
date/time (UTC)wind fromknots sea level pressurealtimeterstation pressurevisibilityair tempwater tempwave heightnotes
2017-Dec-15 13:09 221 4 gusting 9 10.0
2017-Dec-15 13:04 243 6 gusting 7 10.0
2017-Dec-15 12:59 249 5 gusting 12 10.0
2017-Dec-15 12:54 285 8 gusting 16 10.0
2017-Dec-15 12:49 241 7 gusting 16 10.0
2017-Dec-15 12:44 259 10 gusting 15 10.0
2017-Dec-15 12:39 253 7 gusting 14 10.0
2017-Dec-15 12:34 252 6 gusting 14 10.0
2017-Dec-15 12:29 323 6 gusting 19 11.1
2017-Dec-15 12:24 338 7 gusting 19 11.7
2017-Dec-15 12:19 257 8 gusting 18 11.7
2017-Dec-15 12:14 239 11 gusting 18 11.7
2017-Dec-15 12:09 207 10 gusting 15 11.7
2017-Dec-15 12:04 215 6 gusting 14 11.1
2017-Dec-15 11:59 245 9 gusting 15 11.1
2017-Dec-15 11:54 240 7 gusting 19 11.1
2017-Dec-15 11:49 232 6 gusting 19 11.1
2017-Dec-15 11:44 269 5 gusting 17 10.6
2017-Dec-15 11:39 257 8 gusting 16 10.6
2017-Dec-15 11:34 255 12 gusting 15 10.6
2017-Dec-15 11:29 252 7 gusting 19 10.0
2017-Dec-15 11:24 263 12 gusting 19 10.0
2017-Dec-15 11:19 258 9 gusting 18 10.0
2017-Dec-15 11:14 252 7 gusting 18 10.6
2017-Dec-15 11:09 238 11 gusting 16 10.6
2017-Dec-15 11:04 255 9 gusting 14 10.6
2017-Dec-15 10:59 226 7 gusting 10 10.0
2017-Dec-15 10:54 261 6 gusting 9 10.0
2017-Dec-15 10:49 227 5 gusting 15 10.0
2017-Dec-15 10:44 250 9 gusting 17 10.0
2017-Dec-15 10:39 245 13 gusting 19 10.0
2017-Dec-15 10:34 267 13 gusting 19 10.6
2017-Dec-15 10:29 269 10 gusting 14 10.6
2017-Dec-15 10:24 227 10 gusting 11 10.0
2017-Dec-15 10:19 247 6 gusting 13 10.0
2017-Dec-15 10:14 255 8 gusting 13 10.0
2017-Dec-15 10:09 263 6 gusting 10 9.4
2017-Dec-15 10:04 239 5 gusting 12 9.4
2017-Dec-15 09:59 242 7 gusting 12 8.9
2017-Dec-15 09:54 257 6 gusting 12 8.9
2017-Dec-15 09:49 238 6 gusting 12 8.9
2017-Dec-15 09:44 257 6 gusting 12 8.9
2017-Dec-15 09:39 229 7 gusting 13 8.9
2017-Dec-15 09:34 257 8 gusting 17 8.9
2017-Dec-15 09:29 244 8 gusting 17 8.9
2017-Dec-15 09:24 242 10 gusting 19 8.9
2017-Dec-15 09:19 242 8 gusting 20 8.9
2017-Dec-15 09:14 250 12 gusting 20 8.9
2017-Dec-15 09:09 257 13 gusting 19 8.9
2017-Dec-15 09:04 252 9 gusting 13 8.9
2017-Dec-15 08:59 260 5 gusting 13 8.9
2017-Dec-15 08:54 265 10 gusting 13 8.9
2017-Dec-15 08:49 248 6 gusting 13 8.3
2017-Dec-15 08:44 209 4 gusting 11 8.3
2017-Dec-15 08:39 219 8 gusting 11 8.3
2017-Dec-15 08:34 231 5 gusting 14 8.3
2017-Dec-15 08:29 248 6 gusting 14 8.9
2017-Dec-15 08:24 234 6 gusting 12 8.3
2017-Dec-15 08:19 224 7 gusting 12 8.3
2017-Dec-15 08:14 250 6 gusting 12 8.3
2017-Dec-15 08:09 225 6 gusting 10 8.3
2017-Dec-15 08:04 250 6 gusting 10 8.3
2017-Dec-15 07:59 230 6 gusting 11 8.3
2017-Dec-15 07:54 244 5 gusting 13 8.3
2017-Dec-15 07:49 214 8 gusting 19 8.3
2017-Dec-15 07:44 244 12 gusting 19 8.3
2017-Dec-15 07:39 234 6 gusting 13 8.3
2017-Dec-15 07:34 210 6 gusting 12 8.9
2017-Dec-15 07:29 245 8 gusting 13 8.9
2017-Dec-15 07:24 257 10 gusting 14 8.9
2017-Dec-15 07:19 265 10 gusting 14 8.9
2017-Dec-15 07:14 264 7 gusting 11 8.9
2017-Dec-15 07:09 229 9 gusting 11 8.9
2017-Dec-15 07:04 223 7 gusting 11 8.9
2017-Dec-15 06:59 257 3 gusting 7 8.9
2017-Dec-15 06:54 236 4 gusting 7 8.9
2017-Dec-15 06:49 245 5 gusting 7 8.9
2017-Dec-15 06:44 218 8.9
2017-Dec-15 06:39 191 3 gusting 7 8.9
2017-Dec-15 06:34 205 1 gusting 11 8.9
2017-Dec-15 06:29 260 6 gusting 13 8.9
2017-Dec-15 06:24 243 6 gusting 13 8.9
2017-Dec-15 06:19 232 6 gusting 10 8.9
2017-Dec-15 06:14 262 2 gusting 6 8.9
2017-Dec-15 06:09 267 3 gusting 9 8.9
2017-Dec-15 06:04 281 5 gusting 13 8.9
2017-Dec-15 05:59 259 10 gusting 13 8.9
2017-Dec-15 05:54 268 7 gusting 15 8.9
2017-Dec-15 05:49 249 6 gusting 18 8.9
2017-Dec-15 05:44 239 10 gusting 18 8.9
2017-Dec-15 05:39 248 8 gusting 15 8.9
2017-Dec-15 05:34 261 5 gusting 9 8.9
2017-Dec-15 05:29 265 5 gusting 10 8.9
2017-Dec-15 05:24 240 6 gusting 13 8.9
2017-Dec-15 05:19 251 6 gusting 13 8.9
2017-Dec-15 05:14 227 7 gusting 13 8.9
2017-Dec-15 05:09 261 8 gusting 13 8.9
2017-Dec-15 05:04 252 7 gusting 10 9.4
2017-Dec-15 04:59 218 5 gusting 9 9.4
2017-Dec-15 04:54 218 5 gusting 10 9.4
2017-Dec-15 04:49 209 6 gusting 10 9.4
2017-Dec-15 04:44 258 5 gusting 12 9.4
2017-Dec-15 04:39 257 6 gusting 12 9.4
2017-Dec-15 04:34 242 5 gusting 10 9.4
2017-Dec-15 04:29 265 6 gusting 11 9.4
2017-Dec-15 04:24 265 5 gusting 13 9.4
2017-Dec-15 04:19 321 8 gusting 13 9.4
2017-Dec-15 04:14 283 5 gusting 13 9.4
2017-Dec-15 04:09 292 6 gusting 13 9.4
2017-Dec-15 04:04 289 3 gusting 13 9.4
2017-Dec-15 03:59 314 6 gusting 16 10.0
2017-Dec-15 03:54 318 6 gusting 16 10.0
2017-Dec-15 03:49 315 6 gusting 16 10.0
2017-Dec-15 03:44 346 6 gusting 19 10.0
2017-Dec-15 03:39 339 10 gusting 19 10.6
2017-Dec-15 03:34 322 7 gusting 18 11.1
2017-Dec-15 03:29 342 6 gusting 18 11.1
2017-Dec-15 03:24 026 8 gusting 17 11.7
2017-Dec-15 03:19 355 12 gusting 23 12.2
2017-Dec-15 03:14 295 9 gusting 23 12.8
2017-Dec-15 03:09 346 7 gusting 11 12.8
2017-Dec-15 03:04 255 6 gusting 11 12.2
2017-Dec-15 02:59 257 6 gusting 12 12.8
2017-Dec-15 02:54 258 7 gusting 12 12.8
2017-Dec-15 02:49 242 6 gusting 12 12.8
2017-Dec-15 02:44 264 5 gusting 15 12.8
2017-Dec-15 02:39 254 8 gusting 15 12.8
2017-Dec-15 02:34 266 6 gusting 13 12.8
2017-Dec-15 02:29 260 6 gusting 14 12.8
2017-Dec-15 02:24 229 7 gusting 14 12.8
2017-Dec-15 02:19 252 6 gusting 15 12.8
2017-Dec-15 02:09 257 7 gusting 17 12.8
2017-Dec-15 02:04 267 11 gusting 17 12.8
2017-Dec-15 01:59 252 10 gusting 17 12.8
2017-Dec-15 01:54 244 8 gusting 15 12.8
2017-Dec-15 01:49 257 8 gusting 15 12.8
2017-Dec-15 01:44 244 9 gusting 13 12.8
2017-Dec-15 01:39 250 9 gusting 15 12.8
2017-Dec-15 01:34 236 9 gusting 16 12.8
2017-Dec-15 01:29 255 9 gusting 16 12.8
2017-Dec-15 01:24 262 8 gusting 16 12.8
2017-Dec-15 01:19 265 9 gusting 16 12.8
2017-Dec-15 01:14 242 7 gusting 12 12.8
2017-Dec-15 01:09 250 7 gusting 12 12.8
2017-Dec-15 01:04 246 6 gusting 15 12.8
2017-Dec-15 00:59 242 6 gusting 15 12.8
2017-Dec-15 00:54 255 9 gusting 15 12.8
2017-Dec-15 00:49 242 6 gusting 9 12.8
2017-Dec-15 00:44 243 6 gusting 11 12.8
2017-Dec-15 00:39 211 8 gusting 11 12.8
2017-Dec-15 00:34 261 6 gusting 13 12.8
2017-Dec-15 00:29 261 8 gusting 13 12.8
2017-Dec-15 00:24 236 6 gusting 12 12.8
2017-Dec-15 00:19 236 8 gusting 13 12.8
2017-Dec-14 18:09 247 5 gusting 10 13.3
2017-Dec-14 18:04 263 7 gusting 10 13.3
2017-Dec-14 17:59 240 6 gusting 8 13.3
2017-Dec-14 17:54 256 5 gusting 7 13.3
2017-Dec-14 17:49 223 4 gusting 9 13.3
2017-Dec-14 17:44 238 5 gusting 9 13.3
2017-Dec-14 17:39 252 3 gusting 6 12.8
2017-Dec-14 17:34 241 1 gusting 6 12.8
2017-Dec-14 17:29 217 3 gusting 7 12.8
2017-Dec-14 17:24 235 4 gusting 8 12.8
2017-Dec-14 17:19 237 4 gusting 8 12.8
2017-Dec-14 17:14 242 6 gusting 9 12.8
2017-Dec-14 17:09 249 5 gusting 11 12.8
2017-Dec-14 17:04 246 7 gusting 11 12.8
2017-Dec-14 16:59 272 5 gusting 12 13.3
2017-Dec-14 16:54 246 6 gusting 13 13.3
2017-Dec-14 16:49 271 11 gusting 15 13.3
2017-Dec-14 16:44 243 7 gusting 16 13.3
2017-Dec-14 16:39 222 11 gusting 16 13.3
2017-Dec-14 16:34 271 4 gusting 10 13.3
2017-Dec-14 16:29 251 8 gusting 10 13.3
2017-Dec-14 16:24 249 6 gusting 10 13.3
2017-Dec-14 16:19 218 4 gusting 6 13.3
2017-Dec-14 16:14 236 3 gusting 6 13.3
2017-Dec-14 16:09 215 3 gusting 7 13.3
2017-Dec-14 16:04 257 4 gusting 7 13.3
2017-Dec-14 15:59 250 5 gusting 7 13.3
2017-Dec-14 15:54 259 4 gusting 9 13.3
2017-Dec-14 15:49 248 6 gusting 9 13.3
2017-Dec-14 15:44 265 1 gusting 11 13.3
2017-Dec-14 15:39 246 8 gusting 11 13.3
2017-Dec-14 15:34 264 2 gusting 7 13.3
2017-Dec-14 15:29 243 3 gusting 13 13.3
2017-Dec-14 15:24 248 6 gusting 13 13.3
2017-Dec-14 15:19 260 5 gusting 8 13.3
2017-Dec-14 15:14 242 3 gusting 9 13.3
2017-Dec-14 15:09 254 6 gusting 12 13.9
2017-Dec-14 15:04 261 7 gusting 12 13.9
2017-Dec-14 14:59 258 7 gusting 13 13.9
2017-Dec-14 14:54 260 6 gusting 15 13.9
2017-Dec-14 14:49 246 10 gusting 15 13.9
2017-Dec-14 14:44 263 6 gusting 15 13.9
2017-Dec-14 14:39 253 9 gusting 15 14.4
2017-Dec-14 13:49 254 5 gusting 9 14.4
2017-Dec-14 13:44 229 3 gusting 6 14.4
2017-Dec-14 13:39 255 5 gusting 6 14.4
2017-Dec-14 13:34 252 4 gusting 7 14.4
2017-Dec-14 13:29 239 4 gusting 9 14.4
2017-Dec-14 13:24 201 5 gusting 9 14.4
2017-Dec-14 13:19 273 4 gusting 7 14.4
2017-Dec-14 13:14 244 6 gusting 7 14.4
2017-Dec-14 12:24 236 7 gusting 9 14.4
2017-Dec-14 12:19 258 3 gusting 12 14.4
2017-Dec-14 12:14 262 4 gusting 12 14.4
2017-Dec-14 12:09 259 6 gusting 9 14.4
2017-Dec-14 12:04 284 6 gusting 11 14.4
2017-Dec-14 11:59 249 6 gusting 11 14.4
2017-Dec-14 11:54 250 5 gusting 12 14.4
2017-Dec-14 11:49 246 6 gusting 12 14.4
2017-Dec-14 11:44 286 9 gusting 12 14.4
2017-Dec-14 11:39 258 6 gusting 15 14.4
2017-Dec-14 11:34 265 6 gusting 15 14.4
2017-Dec-14 11:29 257 8 gusting 13 14.4
2017-Dec-14 11:24 258 7 gusting 14 14.4
2017-Dec-14 11:19 262 7 gusting 14 14.4
2017-Dec-14 11:14 324 6 gusting 13 13.9
2017-Dec-14 11:09 253 6 gusting 13 13.9
2017-Dec-14 11:04 269 10 gusting 13 13.9
2017-Dec-14 10:59 262 7 gusting 13 13.9
2017-Dec-14 10:54 247 9 gusting 15 13.9
2017-Dec-14 10:49 217 9 gusting 15 13.9
2017-Dec-14 10:44 253 7 gusting 13 13.9
2017-Dec-14 10:39 242 8 gusting 17 13.9
2017-Dec-14 10:34 215 11 gusting 17 13.3
2017-Dec-14 10:29 217 11 gusting 17 13.3
2017-Dec-14 10:24 250 8 gusting 16 13.3
2017-Dec-14 10:19 254 9 gusting 16 13.3
2017-Dec-14 10:14 250 10 gusting 15 13.3
2017-Dec-14 10:09 211 6 gusting 10 13.3
2017-Dec-14 10:04 233 5 gusting 9 13.3
2017-Dec-14 09:59 226 6 gusting 9 12.8
2017-Dec-14 09:54 219 4 gusting 9 12.8
2017-Dec-14 09:49 221 4 gusting 8 12.8
2017-Dec-14 09:44 233 4 gusting 8 12.8
2017-Dec-14 09:39 213 4 gusting 6 12.8
2017-Dec-14 09:34 236 3 gusting 6 12.8
2017-Dec-14 09:29 195 4 gusting 6 12.8
2017-Dec-14 09:24 235 4 gusting 9 12.8
2017-Dec-14 09:19 228 6 gusting 10 12.8
2017-Dec-14 09:14 221 5 gusting 10 12.8
2017-Dec-14 09:09 215 6 gusting 11 12.8
2017-Dec-14 09:04 207 6 gusting 11 12.8
2017-Dec-14 08:59 219 6 gusting 8 12.2
2017-Dec-14 08:54 224 3 gusting 6 12.2
2017-Dec-14 08:49 194 2 gusting 5 12.2
2017-Dec-14 08:44 207 1 gusting 4 12.2
2017-Dec-14 08:39 245 0 gusting 2 12.2
2017-Dec-14 08:34 245 0 gusting 2 12.2
2017-Dec-14 08:29 245 12.2
2017-Dec-14 08:24 245 12.2
2017-Dec-14 08:19 245 12.2
2017-Dec-14 08:14 245 12.2
2017-Dec-14 03:24 237 4 gusting 8 12.8
2017-Dec-14 03:19 242 1 gusting 8 12.8
2017-Dec-14 03:14 210 5 gusting 6 12.8
2017-Dec-14 03:09 232 3 gusting 6 12.8
2017-Dec-14 03:04 250 4 gusting 6 12.8
2017-Dec-14 02:59 231 2 gusting 6 13.3
2017-Dec-14 02:54 257 3 gusting 6 13.3
2017-Dec-14 02:49 260 3 gusting 5 13.3
2017-Dec-14 02:44 242 1 gusting 6 13.3
2017-Dec-14 02:39 238 4 gusting 6 13.3
2017-Dec-14 02:34 249 4 gusting 6 13.3
2017-Dec-14 02:29 248 4 gusting 8 13.3
2017-Dec-14 02:24 242 3 gusting 8 13.3
2017-Dec-14 02:19 257 5 gusting 7 13.3
2017-Dec-14 02:14 255 4 gusting 6 13.3
2017-Dec-14 02:09 252 4 gusting 6 13.3
2017-Dec-14 02:04 232 5 gusting 6 13.3
2017-Dec-14 01:49 265 4 gusting 10 13.3
2017-Dec-14 01:44 261 5 gusting 10 13.3
2017-Dec-14 01:39 279 4 gusting 8 13.9
2017-Dec-14 01:34 256 3 gusting 11 13.3
2017-Dec-14 01:29 303 8 gusting 11 13.3
2017-Dec-14 01:24 255 8 gusting 11 13.3
2017-Dec-14 01:19 250 6 gusting 10 13.9
2017-Dec-14 01:14 264 6 gusting 8 13.9
2017-Dec-14 01:09 242 5 gusting 8 13.9
2017-Dec-14 01:04 277 6 gusting 8 13.9
2017-Dec-14 00:59 279 3 gusting 8 13.9
2017-Dec-14 00:54 249 4 gusting 8 13.9
2017-Dec-14 00:49 252 0 gusting 6 13.9
2017-Dec-14 00:44 291 0 gusting 7 13.9
2017-Dec-14 00:39 267 5 gusting 11 13.9
2017-Dec-14 00:34 271 5 gusting 11 13.9
2017-Dec-14 00:29 249 6 gusting 11 13.9
2017-Dec-14 00:24 252 6 gusting 11 13.9
2017-Dec-14 00:19 265 3 gusting 4 13.9
2017-Dec-13 23:54 286 7 gusting 19 13.9
2017-Dec-13 23:49 292 5 gusting 19 13.9
2017-Dec-13 23:44 261 5 gusting 16 13.9
2017-Dec-13 23:39 286 6 gusting 13 13.9
2017-Dec-13 23:34 261 5 gusting 7 13.9
2017-Dec-13 23:29 302 2 gusting 9 13.9
2017-Dec-13 23:24 257 6 gusting 9 13.9
2017-Dec-13 23:19 238 5 gusting 12 13.9
2017-Dec-13 23:14 253 6 gusting 12 13.9
2017-Dec-13 23:09 242 6 gusting 12 13.9
2017-Dec-13 23:04 231 7 gusting 12 13.9
2017-Dec-13 22:59 273 6 gusting 13 13.9
2017-Dec-13 22:54 251 5 gusting 13 13.3
2017-Dec-13 22:49 013 3 gusting 12 13.3
2017-Dec-13 22:44 244 6 gusting 9 13.3
2017-Dec-13 22:39 256 4 gusting 6 13.3
2017-Dec-13 22:34 227 4 gusting 6 13.3
2017-Dec-13 22:29 200 3 gusting 6 13.3
2017-Dec-13 22:24 218 2 gusting 5 13.3
2017-Dec-13 22:19 226 2 gusting 6 13.3
2017-Dec-13 22:14 239 2 gusting 6 13.3
2017-Dec-13 22:09 248 2 gusting 5 13.3
2017-Dec-13 22:04 253 4 gusting 5 13.3
2017-Dec-13 21:59 273 2 gusting 4 13.3
2017-Dec-13 21:54 262 2 gusting 6 13.9
2017-Dec-13 21:49 313 3 gusting 6 13.9
2017-Dec-13 21:44 319 5 gusting 6 13.9
2017-Dec-13 21:39 298 3 gusting 6 13.3
2017-Dec-13 21:34 329 13.3
2017-Dec-13 21:29 280 2 gusting 6 13.3
2017-Dec-13 21:24 246 4 gusting 6 13.3
2017-Dec-13 21:19 213 5 gusting 6 13.3
2017-Dec-13 20:59 248 3 gusting 9 13.3
2017-Dec-13 20:54 236 4 gusting 9 13.3
2017-Dec-13 20:49 223 5 gusting 8 13.3
2017-Dec-13 20:44 217 5 gusting 8 13.3
2017-Dec-13 20:39 271 4 gusting 8 13.3
2017-Dec-13 20:34 257 6 gusting 10 13.3
2017-Dec-13 20:29 257 4 gusting 12 13.9
2017-Dec-13 20:24 224 6 gusting 12 13.9
2017-Dec-13 20:19 214 7 gusting 12 13.9
2017-Dec-13 20:14 209 6 gusting 12 14.4
2017-Dec-13 20:09 236 8 gusting 12 14.4
2017-Dec-13 20:04 235 7 gusting 10 15.0
2017-Dec-13 19:59 219 2 gusting 7 15.0
2017-Dec-13 19:54 239 5 gusting 7 15.0
2017-Dec-13 19:44 245 3 gusting 9 15.0
2017-Dec-13 19:39 262 5 gusting 9 15.0
2017-Dec-13 19:34 259 6 gusting 13 15.0
2017-Dec-13 19:29 226 4 gusting 13 14.4
2017-Dec-13 19:24 226 6 gusting 11 14.4
2017-Dec-13 19:19 216 7 gusting 15 14.4
2017-Dec-13 19:14 228 9 gusting 15 14.4
2017-Dec-13 19:04 229 8 gusting 12 14.4
2017-Dec-13 13:59 220 7 gusting 11 16.1
2017-Dec-13 13:54 215 5 gusting 13 16.1
2017-Dec-13 13:49 220 6 gusting 13 16.1
2017-Dec-13 13:44 200 7 gusting 13 16.7
2017-Dec-13 13:39 207 6 gusting 13 16.7
2017-Dec-13 13:34 217 8 gusting 13 16.1
2017-Dec-13 13:29 221 8 gusting 13 16.1
2017-Dec-13 13:24 229 5 gusting 10 16.1
2017-Dec-13 13:19 221 6 gusting 10 16.1
2017-Dec-13 13:14 225 6 gusting 10 16.1
2017-Dec-13 13:09 209 5 gusting 10 16.1
2017-Dec-13 13:04 214 4 gusting 10 16.1